Temperature
20 20 20 20 19 19 19 18 18 18 18 18 18 18 18 18 18 18 18 18 17 17 17 17 17 17 17 17 17 17 17 17 17 17 17 17 17 17 17 16 16 16 16
20 20 19 19 19 19 18 18 18 18 18 18 18 18 18 18 18 17 17 17 17 17 17 17 17 17 17 17 17 17 17 17 17 17 17 17 17 17 17 17 17 17 16
20 20 19 19 19 19 19 18 18 18 18 18 18 18 17 17 17 17 17 17 17 17 17 17 17 17 17 17 17 17 17 17 17 17 17 17 17 17 17 17 17 17 17
20 20 19 19 19 19 19 19 19 18 18 18 18 18 18 18 18 18 17 17 17 17 17 17 17 17 17 16 16 16 16 17 17 17 17 17 17 17 17 17 17 17 17
20 20 20 20 19 19 19 19 18 18 18 18 18 18 18 18 18 17 17 17 17 17 17 17 17 16 16 16 16 16 16 16 17 17 17 17 17 17 17 17 17 17 17
20 20 20 20 19 19 19 18 18 18 18 18 18 18 18 18 18 17 17 17 17 17 17 17 17 17 16 16 16 16 16 16 16 17 17 17 17 17 17 17 17 17 17
20 20 19 19 19 19 19 18 18 18 18 18 18 18 18 18 18 18 17 17 17 17 17 17 17 17 16 16 16 16 16 16 16 16 17 17 17 17 17 17 17 17 17
21 20 20 20 19 19 19 18 18 18 18 18 18 18 18 18 18 18 17 17 17 17 17 17 17 16 16 16 16 16 16 16 16 16 16 16 17 17 17 17 17 17 17
20 20 20 20 19 19 19 19 18 18 18 18 18 18 17 17 17 17 17 17 17 17 17 17 17 16 16 16 16 16 16 16 16 16 16 16 16 16 17 17 17 17 17
20 20 20 20 19 19 19 19 18 18 18 18 18 18 17 17 17 17 17 17 17 17 17 17 16 16 16 16 16 16 16 16 16 16 16 16 16 16 16 16 16 16 16
20 20 20 20 19 19 19 18 18 18 18 18 18 18 18 17 17 17 17 17 17 17 17 17 16 16 16 16 16 16 16 16 16 16 16 16 16 16 16 16 16 16 16
20 20 20 20 19 19 19 19 18 18 18 18 18 18 18 17 17 17 17 17 17 17 17 16 16 16 16 16 16 16 16 16 16 16 16 16 16 16 16 16 16 16 16
20 20 20 20 19 19 19 18 18 18 18 18 18 18 17 17 17 17 17 17 17 16 16 16 16 16 16 16 16 16 16 16 16 15 15 15 15 15 15 15 15 15 15
20 20 20 20 19 19 19 18 18 18 18 18 17 17 17 17 17 17 16 16 16 16 16 16 16 16 16 16 16 16 16 15 15 15 15 15 15 15 15 15 15 15 15
20 20 19 19 19 19 19 18 18 18 18 17 17 17 17 17 17 16 16 16 16 16 16 16 16 15 15 15 15 15 15 15 15 15 15 15 15 15 15 15 15 14 14
19 19 19 19 18 19 19 18 18 18 18 17 17 17 17 16 16 16 16 15 15 15 15 15 15 15 15 15 15 15 15 15 15 15 14 14 14 14 14 14 14 14 14
19 19 19 19 19 19 19 18 18 18 17 17 17 17 17 16 16 16 16 15 15 15 15 15 14 14 14 14 14 14 14 14 14 14 14 14 14 14 13 13 13 13 13
19 19 18 18 18 18 18 18 18 17 17 17 17 16 16 16 16 15 15 15 14 14 14 14 14 14 14 14 14 14 14 14 13 13 13 13 13 13 12 12 12 12 12
18 18 18 18 18 18 18 17 17 17 17 16 16 16 16 16 15 15 15 14 14 14 13 13 13 13 13 13 13 13 13 13 12 12 12 12 11 11 11 11 11 11 11
18 17 17 17 17 17 17 17 16 16 16 15 15 15 15 15 15 14 14 14 13 13 13 13 12 12 12 12 12 12 12 12 11 11 11 11 10 10 10 10 10 10 10
17 17 16 16 16 16 16 16 16 15 15 15 15 15 14 14 14 14 13 13 12 12 12 12 11 11 11 11 11 11 11 11 11 10 10 10 9 9 9 9 9 8 8
16 16 16 15 15 15 15 15 14 14 14 14 14 14 13 13 13 13 12 12 12 12 11 11 11 10 10 10 10 10 10 10 10 9 9 9 8 8 8 8 7 7 7
15 15 15 14 14 14 15 14 14 14 14 14 13 13 12 12 12 12 11 11 11 11 10 10 10 10 10 10 9 9 9 9 9 8 8 8 7 7 7 7 7 7 7
14 14 14 14 13 13 14 14 13 13 13 13 12 12 12 11 11 11 11 11 10 10 10 10 10 9 9 9 8 8 8 8 8 8 7 7 7 7 6 6 6 6 5
13 13 13 13 12 12 13 13 12 13 12 12 12 11 11 11 11 10 10 10 10 10 10 9 9 9 8 8 7 7 7 7 7 7 7 6 6 6 6 5 5 5 4
12 12 12 12 12 12 12 12 12 12 12 12 11 11 11 11 10 10 9 9 9 9 9 8 8 8 7 7 7 7 7 6 6 6 6 5 5 5 5 4 4 4 3
Wind_Speed
6 8 11 12 13 12 12 12 12 11 10 8 6 6 5 4 4 4 7 8 8 9 7 4 4 4 4 4 4 3 3 2 2 3 3 3 2 1 3 3 4 6 11
8 9 10 11 12 13 13 12 12 11 10 7 6 5 5 4 4 3 4 8 8 8 7 5 5 4 4 4 4 4 3 1 2 3 3 2 4 3 1 2 4 5 7
12 11 12 11 12 14 14 13 11 11 10 9 6 6 5 4 3 3 3 4 7 8 7 7 5 5 4 4 4 4 4 2 1 2 4 3 3 2 3 2 3 4 5
10 10 11 11 12 12 12 11 11 11 10 10 9 9 7 6 6 5 4 4 6 7 8 8 6 5 4 4 3 4 3 4 2 0 0 2 4 3 1 3 2 3 5
12 12 12 12 11 11 10 10 10 10 10 10 11 10 7 5 5 5 6 5 4 6 8 8 6 5 4 5 4 4 4 3 3 2 1 1 1 2 3 2 3 3 3
11 10 10 9 9 9 9 10 10 9 9 10 10 9 9 8 9 8 7 5 4 4 6 7 6 6 5 5 5 5 5 4 4 3 2 2 2 1 2 3 3 3 4
10 10 11 11 11 11 10 10 11 10 10 10 10 9 10 10 11 10 9 7 5 4 6 6 5 5 5 5 4 4 4 4 4 3 2 2 2 2 3 3 2 3 3
10 11 11 12 12 12 11 11 11 10 10 10 9 8 9 7 7 9 8 8 7 7 7 7 6 6 6 5 4 3 3 3 3 3 2 1 1 1 2 3 3 0 2
11 11 11 10 10 11 11 11 11 10 10 10 9 8 8 8 8 8 8 7 6 7 8 8 7 6 6 5 5 3 3 3 3 2 2 2 1 0 1 2 3 4 2
9 9 10 11 10 10 9 10 10 11 10 11 10 9 8 8 8 7 8 8 8 7 8 8 7 6 6 5 5 3 3 4 3 3 2 1 1 0 1 1 1 3 4
9 9 8 9 9 8 9 9 9 9 9 10 9 8 8 7 7 7 7 7 7 8 9 8 7 6 5 5 5 4 3 4 3 2 2 3 2 1 1 0 1 1 3
7 7 8 7 7 8 8 9 9 9 9 9 8 8 7 7 7 7 7 7 7 7 7 7 7 6 6 5 6 5 4 4 4 4 3 3 2 2 2 1 1 1 2
6 6 6 7 7 7 7 8 9 9 8 8 8 7 7 8 8 7 7 7 7 6 6 6 6 5 4 4 4 4 4 4 4 3 3 3 2 2 2 2 2 2 1
8 7 6 6 6 6 7 8 7 7 8 8 7 8 8 8 8 7 7 7 7 6 6 5 5 4 4 3 2 3 3 3 2 2 2 1 2 2 2 2 2 2 1
8 8 8 7 7 7 7 7 7 7 8 8 7 7 7 7 7 7 7 7 7 6 6 5 5 4 3 2 2 2 3 3 2 2 1 1 2 1 0 0 1 1 1
10 9 8 8 8 8 8 7 7 7 8 8 7 7 7 8 8 9 9 8 8 7 7 6 6 6 4 4 5 4 3 3 3 2 2 4 6 6 5 5 4 3 1
9 9 8 8 8 8 9 8 7 7 7 8 7 7 8 8 8 9 9 9 8 8 9 8 8 7 6 7 7 8 6 6 5 5 4 5 6 7 5 6 8 7 8
7 7 7 7 7 7 8 8 8 8 8 8 8 7 8 9 9 9 10 10 9 9 9 8 8 8 8 9 9 9 8 7 7 6 6 6 6 7 6 5 6 6 7
5 5 7 9 8 9 10 11 10 10 10 9 8 8 9 10 10 11 11 10 11 11 9 8 9 9 9 10 10 9 7 8 8 7 7 7 6 9 9 7 6 7 6
6 6 7 9 10 9 10 12 11 10 10 9 9 9 10 11 11 11 11 10 11 12 11 11 9 10 9 12 11 9 6 7 6 5 6 9 8 9 9 6 6 6 6
7 8 9 9 8 9 12 13 12 11 10 11 11 11 11 11 11 11 11 11 11 12 11 11 10 10 10 12 13 11 6 5 5 5 4 5 9 10 10 7 5 5 4
9 9 10 9 8 9 13 14 12 10 11 13 13 12 11 11 11 12 11 11 11 12 11 11 9 8 8 10 12 14 12 8 6 4 3 4 8 10 10 8 8 10 7
10 10 11 11 9 8 11 14 11 11 13 14 13 12 12 11 10 11 11 10 9 9 8 8 8 6 6 8 12 13 12 11 6 4 6 8 10 10 9 11 12 9 6
10 11 12 12 11 10 11 12 12 13 15 15 13 11 12 12 11 9 8 8 8 8 8 7 7 6 5 6 6 6 6 8 7 6 8 10 11 10 9 9 8 6 5
10 10 11 12 11 11 12 12 12 14 15 14 13 12 12 12 12 11 8 8 6 7 9 6 6 6 5 4 5 5 5 4 5 6 7 7 7 7 7 6 6 6 6
12 12 13 12 11 12 12 10 10 13 15 13 11 10 10 10 10 11 11 15 11 14 13 11 9 6 6 7 10 10 11 11 11 9 7 6 6 6 5 5 5 5 5
Wind_Direction
170 162 160 160 159 159 161 162 161 160 157 156 152 147 149 151 156 166 158 152 146 144 140 133 128 129 132 140 133 118 108 99 112 86 39 2 356 224 210 195 196 205 208
154 164 167 167 167 167 167 167 166 164 164 162 157 154 150 155 161 158 155 158 150 148 146 138 142 138 128 125 124 121 115 76 112 123 103 26 345 323 259 203 203 203 203
163 163 169 172 170 171 173 173 169 166 164 155 144 136 117 106 129 155 171 173 157 152 144 147 143 143 143 148 146 133 130 130 47 141 143 149 212 283 318 270 212 193 194
162 164 167 174 179 178 174 170 169 167 165 157 155 156 158 163 179 177 174 173 161 153 151 147 141 142 144 149 158 144 137 133 117 7 191 170 159 156 270 317 295 229 207
171 177 177 178 180 178 174 170 167 169 168 164 167 167 166 168 164 162 161 167 169 160 154 149 143 143 146 154 148 135 130 130 140 144 126 79 82 121 149 234 288 299 256
177 179 171 167 175 174 172 168 169 172 171 168 169 171 170 166 163 167 171 174 172 166 162 154 149 148 152 159 156 145 140 135 132 133 130 136 140 185 166 197 234 251 266
173 172 168 169 174 174 173 171 171 175 176 175 175 178 177 171 173 174 178 176 176 184 182 166 160 157 163 162 153 145 149 150 144 148 152 157 175 177 166 163 211 248 279
173 177 178 175 176 177 175 173 175 178 179 180 181 180 174 172 177 179 179 182 184 187 181 170 167 169 167 163 153 147 160 159 156 157 167 178 195 174 172 165 157 133 316
176 179 178 175 176 177 180 178 177 178 182 183 180 177 174 175 181 181 181 184 184 183 178 171 170 173 167 160 156 158 175 171 178 178 187 194 216 170 175 169 163 156 201
169 173 178 178 178 180 180 178 180 183 182 183 184 185 181 181 182 177 182 185 183 175 168 171 169 170 168 162 161 165 174 175 192 195 193 217 223 259 79 137 167 166 174
171 171 180 179 175 174 176 179 180 179 181 184 185 181 181 181 178 179 183 180 174 167 168 169 167 168 171 168 167 179 179 192 217 224 213 241 238 251 276 259 112 147 166
160 167 165 161 164 175 181 181 179 178 181 180 178 179 176 173 174 178 177 167 162 162 162 161 163 171 175 177 179 193 194 199 216 229 224 249 245 249 254 238 239 220 193
139 153 157 156 163 173 178 178 176 177 174 172 175 175 175 172 172 171 161 152 149 146 145 147 154 158 160 167 178 187 190 192 201 207 210 235 229 253 260 248 247 251 234
149 156 165 166 166 166 168 174 174 175 171 169 174 174 174 170 163 155 147 142 137 138 139 140 146 148 146 146 156 167 176 178 174 173 176 200 197 232 249 252 259 260 276
154 158 166 171 166 163 161 166 172 174 172 168 176 177 163 154 149 144 138 131 130 133 128 121 108 102 106 102 128 145 152 152 135 108 83 65 69 64 152 260 265 252 260
165 164 163 161 165 164 160 159 164 168 167 168 170 158 148 142 140 136 131 126 121 112 106 101 96 82 70 63 81 110 109 107 103 89 63 55 42 33 38 40 44 54 44
157 159 160 158 161 160 156 156 157 148 142 142 143 143 140 139 138 137 127 122 116 105 95 93 92 82 56 61 74 86 91 84 76 72 62 52 39 34 31 40 42 35 30
147 147 143 137 135 134 134 130 126 124 124 123 124 128 127 126 125 122 119 114 107 101 96 92 89 82 61 67 77 83 84 81 72 68 70 67 42 31 35 46 39 28 20
125 128 133 128 122 123 124 118 115 115 113 114 114 114 117 117 117 117 114 111 106 99 92 85 79 76 61 61 72 81 85 78 68 64 60 59 49 32 42 51 43 30 15
109 108 109 111 114 118 119 115 111 109 109 109 107 105 107 111 113 112 109 106 105 103 96 84 74 73 65 56 65 77 85 82 71 58 49 49 47 39 46 53 47 32 2
100 99 99 101 106 111 112 109 108 108 108 106 103 100 98 102 107 107 107 108 105 102 96 89 75 66 62 55 58 67 78 88 80 60 39 25 30 37 44 52 51 26 10
99 99 99 98 96 105 112 110 110 111 108 105 101 98 97 102 103 104 105 105 107 104 99 92 78 60 51 52 53 58 64 72 77 59 29 21 35 45 47 49 38 36 39
105 105 106 100 91 95 113 116 117 113 107 102 98 95 92 90 94 102 105 104 102 104 101 95 86 65 47 42 46 51 53 54 63 47 42 53 55 51 48 45 46 44 44
103 107 107 105 99 97 103 111 113 109 104 101 97 95 93 87 80 80 89 101 104 107 103 97 93 77 53 37 29 31 38 41 46 44 48 56 57 56 49 45 43 41 42
104 104 106 108 106 103 102 106 110 111 106 103 100 96 94 95 87 78 68 83 81 113 116 112 111 99 73 31 40 52 45 44 52 62 58 53 48 47 42 37 34 30 29
110 105 103 103 102 100 99 100 107 113 113 110 108 107 105 102 102 99 80 55 72 84 91 102 106 88 87 67 61 63 68 72 77 76 66 57 52 49 44 37 25 20 18
Height
1483 1486 1487 1488 1492 1495 1499 1502 1506 1510 1514 1517 1521 1524 1527 1530 1534 1537 1539 1541 1543 1545 1546 1548 1550 1551 1553 1554 1556 1557 1559 1560 1562 1563 1564 1565 1565 1566 1567 1567 1567 1568 1569
1482 1484 1487 1489 1491 1494 1497 1501 1505 1509 1513 1516 1520 1523 1526 1529 1533 1536 1538 1540 1542 1544 1545 1547 1549 1550 1552 1553 1555 1556 1558 1559 1561 1562 1563 1564 1566 1565 1566 1566 1566 1567 1568
1479 1481 1484 1488 1490 1493 1497 1501 1504 1507 1511 1515 1519 1522 1525 1528 1531 1534 1537 1539 1541 1543 1544 1546 1548 1549 1551 1552 1553 1555 1556 1558 1560 1561 1562 1563 1563 1564 1565 1564 1565 1566 1566
1479 1480 1483 1487 1490 1493 1496 1500 1503 1507 1510 1513 1516 1519 1522 1525 1528 1531 1535 1538 1540 1542 1543 1545 1546 1548 1549 1551 1552 1554 1555 1557 1558 1560 1561 1562 1562 1563 1563 1564 1564 1565 1565
1478 1480 1483 1486 1490 1493 1496 1499 1502 1505 1508 1512 1515 1518 1521 1524 1527 1531 1533 1536 1538 1540 1542 1544 1545 1547 1548 1549 1551 1552 1554 1556 1557 1559 1560 1560 1561 1562 1562 1562 1563 1563 1563
1477 1480 1483 1486 1489 1493 1495 1498 1500 1503 1507 1510 1514 1516 1519 1522 1525 1528 1531 1534 1536 1538 1540 1542 1544 1545 1547 1548 1549 1551 1553 1555 1556 1558 1559 1559 1560 1560 1561 1561 1561 1561 1562
1477 1479 1482 1485 1488 1491 1493 1496 1499 1501 1505 1508 1511 1515 1518 1520 1523 1526 1528 1531 1533 1536 1538 1540 1542 1544 1545 1547 1548 1550 1551 1553 1555 1556 1557 1558 1559 1559 1560 1560 1560 1560 1560
1475 1478 1481 1484 1487 1489 1492 1494 1496 1499 1503 1506 1509 1513 1516 1518 1521 1524 1526 1528 1531 1533 1536 1538 1540 1542 1544 1546 1547 1549 1550 1552 1553 1554 1556 1557 1557 1558 1558 1559 1559 1558 1558
1474 1476 1479 1483 1485 1488 1490 1492 1494 1497 1500 1503 1507 1510 1513 1516 1518 1521 1524 1526 1529 1532 1534 1537 1539 1541 1543 1544 1546 1547 1549 1550 1551 1552 1554 1555 1556 1556 1557 1557 1557 1557 1556
1473 1476 1479 1481 1484 1486 1489 1491 1493 1495 1497 1501 1504 1507 1510 1513 1516 1519 1521 1524 1527 1530 1532 1535 1537 1539 1541 1543 1545 1546 1547 1548 1549 1550 1551 1552 1553 1554 1554 1555 1555 1555 1555
1473 1476 1479 1481 1483 1486 1488 1489 1491 1493 1496 1498 1501 1504 1507 1510 1513 1516 1519 1522 1525 1527 1530 1533 1535 1537 1539 1541 1543 1544 1545 1547 1547 1548 1549 1550 1551 1551 1552 1552 1552 1552 1552
1473 1475 1478 1480 1482 1485 1487 1488 1490 1492 1494 1497 1499 1502 1504 1507 1510 1513 1517 1520 1523 1525 1528 1531 1534 1536 1537 1539 1541 1542 1543 1544 1545 1546 1546 1547 1548 1548 1549 1549 1549 1549 1549
1472 1475 1477 1479 1481 1483 1485 1487 1489 1491 1493 1496 1498 1500 1502 1505 1508 1511 1515 1518 1521 1523 1526 1529 1531 1533 1535 1537 1538 1540 1541 1542 1543 1543 1544 1544 1544 1545 1545 1546 1546 1546 1546
1470 1473 1476 1477 1479 1481 1483 1485 1488 1490 1492 1494 1496 1498 1500 1503 1506 1509 1513 1516 1519 1522 1524 1527 1529 1531 1533 1534 1535 1537 1538 1539 1540 1540 1541 1541 1541 1542 1542 1542 1542 1542 1542
1468 1471 1474 1476 1478 1479 1481 1484 1486 1488 1490 1492 1495 1497 1499 1502 1505 1507 1510 1513 1516 1519 1522 1524 1526 1528 1530 1531 1533 1534 1535 1536 1537 1537 1538 1538 1538 1538 1538 1538 1538 1538 1538
1466 1470 1472 1474 1475 1477 1479 1482 1484 1487 1489 1491 1494 1496 1499 1501 1503 1505 1508 1511 1514 1517 1519 1521 1524 1525 1527 1528 1530 1531 1532 1533 1534 1534 1535 1535 1535 1535 1535 1534 1534 1534 1534
1465 1468 1470 1472 1474 1475 1478 1480 1483 1486 1488 1490 1492 1495 1498 1500 1502 1505 1507 1510 1512 1515 1517 1519 1522 1523 1525 1526 1528 1529 1530 1530 1531 1532 1532 1532 1532 1532 1532 1531 1531 1531 1530
1465 1467 1469 1471 1473 1475 1477 1480 1483 1486 1488 1490 1492 1494 1497 1499 1502 1504 1506 1509 1511 1513 1516 1518 1520 1522 1523 1525 1526 1526 1527 1528 1528 1529 1529 1529 1529 1529 1529 1528 1528 1527 1527
1466 1467 1469 1470 1472 1475 1477 1480 1482 1484 1487 1490 1492 1494 1496 1498 1501 1503 1506 1508 1510 1513 1515 1518 1519 1521 1522 1524 1525 1525 1525 1526 1526 1527 1527 1527 1527 1527 1526 1526 1525 1525 1524
1466 1467 1469 1470 1472 1475 1478 1480 1482 1484 1487 1490 1492 1495 1497 1499 1501 1503 1506 1508 1510 1512 1515 1517 1519 1521 1522 1523 1524 1525 1525 1525 1525 1526 1526 1526 1526 1525 1525 1524 1523 1522 1521
1466 1468 1469 1471 1473 1476 1478 1480 1483 1485 1488 1491 1493 1495 1498 1500 1502 1504 1506 1509 1511 1513 1515 1517 1520 1521 1523 1523 1524 1524 1525 1525 1525 1525 1525 1525 1525 1524 1524 1523 1522 1521 1520
1467 1469 1471 1472 1475 1477 1479 1481 1484 1487 1489 1492 1494 1496 1499 1501 1504 1505 1508 1510 1512 1514 1516 1518 1520 1522 1523 1524 1524 1525 1525 1525 1525 1525 1525 1525 1525 1524 1523 1523 1522 1521 1520
1467 1470 1473 1475 1477 1479 1481 1482 1485 1488 1490 1493 1495 1498 1501 1503 1506 1508 1510 1513 1515 1516 1518 1520 1522 1523 1524 1524 1525 1525 1525 1525 1525 1525 1526 1525 1525 1524 1523 1523 1522 1520 1519
1469 1471 1474 1476 1479 1481 1484 1486 1488 1490 1492 1494 1498 1501 1503 1505 1508 1511 1514 1515 1517 1519 1521 1522 1523 1524 1525 1525 1525 1526 1526 1526 1526 1526 1526 1526 1526 1525 1524 1523 1521 1520 1518
1471 1473 1476 1479 1482 1484 1486 1488 1491 1493 1495 1498 1501 1504 1506 1509 1512 1514 1517 1519 1520 1522 1523 1524 1525 1525 1525 1526 1527 1527 1527 1527 1527 1527 1527 1527 1526 1525 1524 1522 1521 1519 1518
1473 1476 1479 1482 1485 1487 1489 1492 1494 1496 1498 1501 1504 1507 1510 1512 1515 1516 1519 1522 1523 1525 1526 1526 1527 1527 1528 1528 1528 1528 1528 1528 1528 1528 1527 1526 1526 1525 1523 1522 1520 1518 1516